Onweer radar Meer informatie blitzortung!


Regen radar Meer informatie rain snow radar


Bezoek onze andere website:

Template documentation
and downloads

And another site



15 daagse weersverwachting Örebro (SE)

  • Overzicht
  • Per uur
  • 15 dagen
  • Extra
  • Vergelijk
  • Kaarten
  • Dagkaart
  • Meer »
  • Info
  • Statistieken
  • Directe link
    Temp 6h Neerslag Wind  
 04:42     21:31    Daglengte: 16:49 Morgen
02:00
16°
 
2
08:00
17°
 
2
14:00
20°
3.4 mm
4
20:00
16°
2.6 mm
4
 04:44     21:29    Daglengte: 16:45 Vrijdag 30 Jul
02:00
14°
 
4
08:00
15°
7.2 mm
6
14:00
21°
2.4 mm
5
20:00
21°
10.7 mm
3
 04:46     21:26    Daglengte: 16:40 Zaterdag 31 Jul
02:00
17°
18.5 mm
4
08:00
16°
9.3 mm
4
14:00
21°
29.2 mm
2
Locatie info
Region: Örebro län
Latitude: 59.2708°N
Longitude: 15.2176°E
35 masl
Postcode: 702 12
Temp/Neerslag /Baro Onweer/Dauwpunt
    Temp Baro 1h Neerslag Dauwpunt Wind UV Bewolking  
 04:40     21:33    Daglengte: 16:53 Vandaag
21:00
20°
1005.0 hPa
22%
18.3°
2
Windvlaag: 1.2 m/s
22%
22:00
18°
1004.8 hPa
14%
17.5°
2
Windvlaag: 1.6 m/s
22%
23:00
18°
1004.8 hPa
14%
16.8°
2
Windvlaag: 2 m/s
18%
 04:42     21:31    Daglengte: 16:49 Morgen
00:00
17°
1004.7 hPa
14%
16.7°
2
Windvlaag: 3.2 m/s
31%
01:00
17°
1004.4 hPa
14%
16.4°
2
Windvlaag: 3.2 m/s
46%
02:00
16°
1004.0 hPa
14%
16.2°
2
Windvlaag: 3 m/s
13%
03:00
16°
1003.6 hPa
14%
15.6°
2
Windvlaag: 3.4 m/s
12%
04:00
15°
1003.2 hPa
14%
15.0°
2
Windvlaag: 3.6 m/s
12%
05:00
15°
1002.8 hPa
15%
14.5°
2
Windvlaag: 3.5 m/s
9%
06:00
15°
1002.4 hPa
14%
14.8°
2
Windvlaag: 3.7 m/s
10%
07:00
16°
1002.2 hPa
14%
15.6°
2
Windvlaag: 3.6 m/s
25%
08:00
17°
1001.8 hPa
14%
16.5°
2
Windvlaag: 3.6 m/s
19%
09:00
19°
1001.5 hPa
61%
17.0°
2
Windvlaag: 3.7 m/s
16%
10:00
20°
1000.9 hPa 0.3 mm
72%
16.5°
2
Windvlaag: 5 m/s
25%
11:00
20°
1000.3 hPa 1.0 mm
78%
12.1°
3
Windvlaag: 7 m/s
58%
12:00
20°
999.7 hPa 1.0 mm
82%
10.4°
4
Windvlaag: 7.2 m/s
41%
13:00
20°
999.1 hPa 0.4 mm
82%
15.1°
4
Windvlaag: 7.9 m/s
43%
14:00
20°
998.7 hPa 0.7 mm
82%
17.6°
4
Windvlaag: 8 m/s
38%
15:00
20°
998.0 hPa 0.5 mm
82%
17.7°
4
Windvlaag: 7.7 m/s
14%
16:00
19°
997.6 hPa 0.6 mm
82%
17.2°
4
Windvlaag: 8.6 m/s
67%
17:00
18°
997.3 hPa 0.4 mm
82%
16.2°
4
Windvlaag: 7.6 m/s
42%
18:00
18°
997.0 hPa 0.5 mm
82%
16.1°
4
Windvlaag: 7.2 m/s
63%
19:00
17°
996.8 hPa 0.6 mm
82%
15.2°
4
Windvlaag: 7.4 m/s
48%
20:00
16°
996.5 hPa
80%
14.7°
4
Windvlaag: 7.2 m/s
27%
21:00
16°
996.1 hPa
27%
14.1°
3
Windvlaag: 6.7 m/s
47%
22:00
15°
995.8 hPa
22%
14.0°
3
Windvlaag: 6.5 m/s
39%
23:00
14°
995.3 hPa
23%
13.7°
4
Windvlaag: 7.5 m/s
43%
 04:44     21:29    Daglengte: 16:45 Vrijdag 30 Jul
00:00
14°
994.8 hPa
50%
13.4°
4
Windvlaag: 7.6 m/s
64%
01:00
14°
994.4 hPa
16%
13.6°
4
Windvlaag: 7.4 m/s
61%
02:00
14°
994.1 hPa
59%
13.7°
4
Windvlaag: 8.1 m/s
85%
03:00
14°
993.4 hPa
19%
13.6°
4
Windvlaag: 7.9 m/s
77%
04:00
14°
993.0 hPa 0.5 mm
75%
13.8°
4
Windvlaag: 7.4 m/s
80%
05:00
14°
992.2 hPa
79%
13.9°
4
Windvlaag: 7.9 m/s
78%
06:00
15°
991.7 hPa 0.4 mm
82%
14.2°
5
Windvlaag: 7.8 m/s
77%
07:00
15°
991.4 hPa 1.7 mm
82%
14.4°
5
Windvlaag: 8.4 m/s
83%
08:00
15°
991.0 hPa 4.6 mm
82%
14.3°
6
Windvlaag: 9.3 m/s
79%
09:00
16°
990.8 hPa 2.4 mm
77%
15.0°
6
Windvlaag: 10.1 m/s
86%
10:00
16°
990.7 hPa
39%
15.3°
6
Windvlaag: 9.9 m/s
86%
11:00
17°
990.9 hPa
80%
15.9°
6
Windvlaag: 9.8 m/s
39%
12:00
18°
990.7 hPa
77%
16.7°
6
Windvlaag: 9.7 m/s
36%
13:00
19°
991.2 hPa
72%
17.7°
6
Windvlaag: 4 m/s
17%
14:00
21°
991.6 hPa
64%
18.2°
5
Windvlaag: 2.3 m/s
23%
15:00
21°
991.9 hPa
77%
19.2°
5
Windvlaag: 2 m/s
34%
16:00
21°
992.5 hPa 3.0 mm
76%
19.7°
5
Windvlaag: 0.8 m/s
22%
17:00
21°
991.2 hPa 4.6 mm
99%
15.0°
4
Windvlaag: -0.8 m/s
66%
18:00
22°
991.8 hPa 3.1 mm
99%
13.6°
4
Windvlaag: -0.5 m/s
57%
19:00
22°
992.3 hPa
44%
12.6°
4
Windvlaag: 0.4 m/s
32%
20:00
21°
992.8 hPa
22%
14.3°
3
Windvlaag: 0.8 m/s
24%
21:00
20°
993.5 hPa
21%
13.4°
4
Windvlaag: 0.9 m/s
25%
22:00
18°
994.0 hPa 4.6 mm
21%
15.9°
4
Windvlaag: 1.7 m/s
44%
23:00
17°
994.5 hPa
21%
16.1°
4
Windvlaag: 3.6 m/s
27%
 04:46     21:26    Daglengte: 16:40 Zaterdag 31 Jul
00:00
17°
994.9 hPa 4.7 mm
21%
16.1°
4
Windvlaag: 3.8 m/s
55%
01:00
17°
995.1 hPa 4.7 mm
21%
16.3°
4
Windvlaag: 4.6 m/s
79%
02:00
17°
995.3 hPa 4.6 mm
21%
15.8°
4
Windvlaag: 5.4 m/s
71%
03:00
17°
995.3 hPa 4.7 mm
21%
15.7°
3
Windvlaag: 4.6 m/s
74%
04:00
16°
995.3 hPa
21%
15.6°
3
Windvlaag: 4.2 m/s
78%
05:00
16°
995.3 hPa
21%
15.1°
3
Windvlaag: 4.3 m/s
80%
06:00
16°
995.3 hPa 4.6 mm
21%
14.8°
3
Windvlaag: 4.3 m/s
90%
07:00
16°
995.6 hPa
21%
14.7°
3
Windvlaag: 4.3 m/s
99%
08:00
16°
995.8 hPa
35%
14.9°
4
Windvlaag: 5.1 m/s
85%
09:00
17°
995.8 hPa 4.8 mm
80%
14.6°
4
Windvlaag: 5 m/s
91%
10:00
17°
995.9 hPa 5.0 mm
92%
14.0°
4
Windvlaag: 4.6 m/s
90%
11:00
18°
996.0 hPa 4.9 mm
89%
14.0°
4
Windvlaag: 4.6 m/s
88%
12:00
19°
996.0 hPa 4.8 mm
92%
13.0°
3
Windvlaag: 4.4 m/s
67%
13:00
19°
995.7 hPa 4.8 mm
99%
12.4°
2
Windvlaag: 3.5 m/s
72%
14:00
21°
995.4 hPa 4.8 mm
94%
12.2°
2
Windvlaag: 4.2 m/s
71%
15:00
21°
996.6 hPa
100%
13.5°
3
Windvlaag: 3.3 m/s
32%
16:00
21°
996.1 hPa 4.8 mm
100%
12.8°
2
Windvlaag: 2.4 m/s
19%
17:00
21°
995.8 hPa 4.9 mm
100%
15.2°
2
Windvlaag: 1.7 m/s
87% warningclass
18:00
19°
995.6 hPa 7.6 mm
100%
16.5°
2
Windvlaag: 2.6 m/s
62% warningclass
19:00
18°
995.7 hPa 9.2 mm
100%
17.4°
2
Windvlaag: 2.7 m/s
72% warningclass
20:00
18°
995.5 hPa 8.6 mm
100%
16.9°
2
Windvlaag: 3.6 m/s
82%
Temp/Neerslag /Baro Onweer/Dauwpunt
    Temp Baro Neerslag Dauwpunt Wind Bewolking  
 04:40     21:33    Daglengte: 16:53 Vandaag
23:00
18°
1004.8 hPa   16.8°
2
18%
 04:42     21:31    Daglengte: 16:49 Morgen
02:00
16°
1004.0 hPa   16.2°
2
13%
05:00
15°
1002.8 hPa   14.5°
2
9%
08:00
17°
1001.8 hPa   16.5°
2
19%
11:00
20°
1000.3 hPa 1.3 mm 12.1°
3
58%
14:00
20°
998.7 hPa 2.1 mm 17.6°
4
38%
17:00
18°
997.3 hPa 1.5 mm 16.2°
4
42%
20:00
16°
996.5 hPa 1.1 mm 14.7°
4
27%
23:00
14°
995.3 hPa   13.7°
4
43%
 04:44     21:29    Daglengte: 16:45 Vrijdag 30 Jul
02:00
14°
994.1 hPa   13.7°
4
85%
05:00
14°
992.2 hPa 0.5 mm 13.9°
4
78%
08:00
15°
991.0 hPa 6.7 mm 14.3°
6
79%
11:00
17°
990.9 hPa 2.4 mm 15.9°
6
39%
14:00
21°
991.6 hPa   18.2°
5
23%
17:00
21°
991.2 hPa 7.5 mm 15.0°
4
66%
20:00
21°
992.8 hPa 3.1 mm 14.3°
3
24%
23:00
17°
994.5 hPa 4.6 mm 16.1°
4
27%
 04:46     21:26    Daglengte: 16:40 Zaterdag 31 Jul
02:00
17°
995.3 hPa 13.9 mm 15.8°
4
71%
05:00
16°
995.3 hPa 4.7 mm 15.1°
3
80%
08:00
16°
995.8 hPa 4.6 mm 14.9°
4
85%
11:00
18°
996.0 hPa 14.7 mm 14.0°
4
88%
14:00
21°
995.4 hPa 14.5 mm 12.2°
2
71%
17:00
21°
995.8 hPa 9.7 mm 15.2°
2
87% warningclass
20:00
18°
995.5 hPa 25.3 mm 16.9°
2
82%
23:00
14°
994.8 hPa 35.0 mm 13.4°
2
1%
 04:48     21:24    Daglengte: 16:36 Zondag 01 Aug
02:00
12°
995.7 hPa 35.0 mm 11.9°
2
1%
05:00
11°
996.2 hPa 35.0 mm 10.8°
2
1%
08:00
14°
997.0 hPa 35.0 mm 12.7°
2
1%
11:00
15°
998.3 hPa 35.0 mm 12.1°
3
1%
14:00
19°
998.7 hPa 35.6 mm 12.1°
4
1%
17:00
19°
999.4 hPa 36.0 mm 11.5°
4
1%
20:00
16°
1000.3 hPa 36.5 mm 13.2°
4
1%
23:00
13°
1001.2 hPa 36.5 mm 12.1°
3
0%
 04:51     21:22    Daglengte: 16:31 Maandag 02 Aug
02:00
11°
1001.8 hPa 36.5 mm 11.2°
2
0%
05:00
12°
1001.6 hPa 36.6 mm 11.2°
1
1%
08:00
14°
1002.1 hPa 36.6 mm 11.5°
1
1%
11:00
14°
1003.0 hPa 36.7 mm 10.1°
3
1%
14:00
16°
1003.5 hPa 36.7 mm 9.2°
3
1%
17:00
16°
1003.9 hPa 36.7 mm 8.8°
3
1%
20:00
14°
1004.3 hPa 36.7 mm 9.4°
1
1%
23:00
12°
1005.0 hPa 36.7 mm 7.4°
1
1%
 04:53     21:19    Daglengte: 16:26 Dinsdag 03 Aug
02:00
12°
1005.9 hPa 36.7 mm 6.7°
2
1%
05:00
12°
1006.6 hPa 36.7 mm 6.6°
1
1%
08:00
14°
1007.6 hPa 36.7 mm 6.1°
2
1%
11:00
19°
1007.9 hPa 36.7 mm 5.7°
1
0%
14:00
21°
1007.5 hPa 36.7 mm 7.2°
2
1%
17:00
16°
1007.8 hPa 37.0 mm 11.2°
1
1%
20:00
14°
1007.9 hPa 37.6 mm 10.7°
2
1%
23:00
11°
1008.7 hPa 37.8 mm 10.0°
2
1%
 04:55     21:17    Daglengte: 16:22 Woensdag 04 Aug
02:00
11°
1009.1 hPa 38.7 mm 11.0°
2
1%
05:00
10°
1009.7 hPa 39.1 mm 9.7°
2
1%
08:00
13°
1011.2 hPa 39.1 mm 11.3°
1
1%
11:00
18°
1011.5 hPa 39.2 mm 10.7°
1
0%
14:00
21°
1011.2 hPa 39.4 mm 7.8°
2
0%
17:00
21°
1011.6 hPa 39.4 mm 8.1°
3
1%
20:00
17°
1012.3 hPa 78.8 mm 10.6°
2
1%
 04:57     21:14    Daglengte: 16:17 Donderdag 05 Aug
02:00
11°
1014.2 hPa 78.8 mm 10.8°
2
1%
08:00
16°
1014.4 hPa 78.8 mm 11.5°
2
1%
14:00
19°
1013.9 hPa 80.1 mm 14.2°
2
1%
20:00
17°
1013.4 hPa 82.0 mm 13.3°
2
1%
 05:00     21:12    Daglengte: 16:12 Vrijdag 06 Aug
02:00
14°
1013.6 hPa 82.0 mm 12.5°
1
1%
08:00
16°
1012.5 hPa 82.0 mm 11.9°
2
1%
14:00
24°
1010.1 hPa 82.0 mm 11.8°
5
1%
20:00
18°
1009.2 hPa 83.7 mm 14.4°
2
1%
 05:02     21:09    Daglengte: 16:07 Zaterdag 07 Aug
02:00
16°
1008.0 hPa 85.2 mm 12.3°
2
1%
08:00
16°
1007.1 hPa 1.1 mm 12.7°
1
73%
14:00
21°
1006.3 hPa 1.1 mm 13.1°
2
76%
20:00
18°
1006.1 hPa 2.0 mm 13.5°
1
79%
 05:04     21:06    Daglengte: 16:02 Zondag 08 Aug
02:00
14°
1006.8 hPa 0.8 mm 12.5°
0
72%
08:00
16°
1006.8 hPa 0.9 mm 13.0°
0
71%
14:00
21°
1007.4 hPa 1.0 mm 13.1°
1
70%
20:00
18°
1008.1 hPa 1.2 mm 12.9°
1
66%
 05:07     21:04    Daglengte: 15:57 Maandag 09 Aug
02:00
14°
1009.6 hPa 0.5 mm 11.8°
1
62%
08:00
16°
1009.7 hPa 0.9 mm 12.8°
1
61%
14:00
21°
1009.7 hPa 1.5 mm 13.5°
2
73%
20:00
18°
1009.8 hPa 1.7 mm 13.8°
1
79%
 05:09     21:01    Daglengte: 15:52 Dinsdag 10 Aug
02:00
14°
1011.0 hPa 0.2 mm 12.5°
1
68%
08:00
16°
1011.0 hPa 0.2 mm 13.1°
1
65%
14:00
21°
1010.3 hPa 0.9 mm 12.9°
2
73%
20:00
18°
1009.5 hPa 1.3 mm 13.3°
1
72%
 05:11     20:59    Daglengte: 15:48 Woensdag 11 Aug
02:00
14°
1010.2 hPa 0.4 mm 12.0°
1
59%
08:00
16°
1010.2 hPa 0.4 mm 12.6°
1
59%
14:00
21°
1009.9 hPa   13.0°
1
59%
20:00
18°
1009.6 hPa 1.2 mm 13.1°
1
57%
 05:13     20:56    Daglengte: 15:43 Donderdag 12 Aug
02:00
14°
1010.2 hPa 0.7 mm 12.0°
0
58%
08:00
15°
1009.9 hPa 0.7 mm 12.6°
1
63%
14:00
21°
1009.1 hPa 1.4 mm 12.5°
1
63%
20:00
17°
1009.0 hPa 2.5 mm 12.8°
1
62%
  CAPE Lifted Index Hail Supercell Tornado SRH 3km CL BTM PRES CL TOP PRES Swiss DWD icon SMHI TS
 04:40     21:33    Daglengte: 16:53 Vandaag
21:00 497 J/kg -2.1 K 0 % 0 % 0 % 0 m²/s² 0 0 -1.83 2
22:00 94 J/kg -2.1 K 0 % 0 % 0 % 0 m²/s² 0 0 -1.35 2
23:00 6 J/kg -2.3 K 0 % 0 % 0 % 0 m²/s² 0 0 -1.22 2
 04:42     21:31    Daglengte: 16:49 Morgen
00:00 74 J/kg -2.5 K 0 % 0 % 0 % 0 m²/s² 0 0 -1.3 3
01:00 130 J/kg -1.9 K 0 % 0 % 0 % 0 m²/s² 0 0 -0.76 3
02:00 13 J/kg -0.3 K 0 % 0 % 0 % 0 m²/s² 0 0 0.93 1
03:00 0 J/kg -0.6 K 0 % 0 % 0 % 0 m²/s² 0 0 1.35 1
04:00 20 J/kg -0.3 K 0 % 0 % 0 % 0 m²/s² 0 0 1.89 1
05:00 33 J/kg -0.1 K 0 % 0 % 0 % 0 m²/s² 0 0 2.3 1
06:00 48 J/kg -0.1 K 0 % 0 % 0 % 0 m²/s² 0 0 2.24 2
07:00 171 J/kg -0.3 K 0 % 0 % 0 % 0 m²/s² 0 0 1.62 2
08:00 301 J/kg -0.9 K 0 % 0 % 0 % 0 m²/s² 0 0 1.41 2
09:00 279 J/kg -0.6 K 0 % 0 % 0 % 0 m²/s² 0 0 0.96 2
10:00 311 J/kg -0.5 K 0 % 0 % 0 % 0 m²/s² 0 0 1.54 2
11:00 393 J/kg -1.0 K 0 % 0 % 0 % 0 m²/s² 0 0 1.46 80
12:00 545 J/kg -1.9 K 0 % 0 % 0 % 0 m²/s² 0 0 0.68 3
13:00 439 J/kg -1.7 K 0 % 0 % 0 % 0 m²/s² 0 0 1.45 80
14:00 368 J/kg -1.6 K 0 % 0 % 0 % 0 m²/s² 0 0 0.62 80
15:00 476 J/kg -2.1 K 0 % 0 % 0 % 0 m²/s² 0 0 -0.66 80
16:00 123 J/kg -0.3 K 0 % 0 % 0 % 0 m²/s² 0 0 0.15 80
17:00 175 J/kg 0.0 K 0 % 0 % 0 % 0 m²/s² 0 0 1.41 80
18:00 174 J/kg -0.1 K 0 % 0 % 0 % 0 m²/s² 0 0 3.17 80
19:00 147 J/kg 0.0 K 0 % 0 % 0 % 0 m²/s² 0 0 3.54 3
20:00 7 J/kg 1.1 K 0 % 0 % 0 % 0 m²/s² 0 0 2.09 3
21:00 0 J/kg 1.7 K 0 % 0 % 0 % 0 m²/s² 0 0 1.88 3
22:00 15 J/kg 1.7 K 0 % 0 % 0 % 0 m²/s² 0 0 2.06 3
23:00 13 J/kg 0.6 K 0 % 0 % 0 % 0 m²/s² 0 0 1.23 3
 04:44     21:29    Daglengte: 16:45 Vrijdag 30 Jul
00:00 36 J/kg -0.4 K 0 % 0 % 0 % 0 m²/s² 0 0 0.11 3
01:00 236 J/kg -1.9 K 0 % 0 % 0 % 0 m²/s² 0 0 -1.48 3
02:00 208 J/kg -1.3 K 0 % 0 % 0 % 0 m²/s² 0 0 -0.88 3
03:00 85 J/kg -1.4 K 0 % 0 % 0 % 0 m²/s² 0 0 -0.53 3
04:00 73 J/kg -1.2 K 0 % 0 % 0 % 0 m²/s² 0 0 -0.06 3
05:00 107 J/kg -1.8 K 0 % 0 % 0 % 0 m²/s² 0 0 0.15 3
06:00 151 J/kg -1.6 K 0 % 0 % 0 % 0 m²/s² 0 0 1.37 61
07:00 218 J/kg -2.2 K 0 % 0 % 0 % 0 m²/s² 0 0 -1.81 61
08:00 148 J/kg -0.7 K 0 % 0 % 0 % 0 m²/s² 0 0 0.02 63
09:00 298 J/kg -0.9 K 0 % 0 % 0 % 0 m²/s² 0 0 -0.03 3
10:00 222 J/kg -0.7 K 0 % 0 % 0 % 0 m²/s² 0 0 -0.16 3
11:00 195 J/kg -0.2 K 0 % 0 % 0 % 0 m²/s² 0 0 0.13 3
12:00 181 J/kg 0.4 K 0 % 0 % 0 % 0 m²/s² 0 0 0.52 2
13:00 224 J/kg 0.1 K 0 % 0 % 0 % 0 m²/s² 0 0 0.58 1
14:00 107 J/kg 0.4 K 0 % 0 % 0 % 0 m²/s² 0 0 2.83 1
15:00 601 J/kg -1.5 K 0 % 0 % 0 % 0 m²/s² 0 0 2.4 1
16:00 644 J/kg -1.9 K 0 % 0 % 0 % 0 m²/s² 0 0 1.61 2
17:00 492 J/kg -1.6 K 0 % 0 % 0 % 0 m²/s² 0 0 0.44 2
18:00 199 J/kg -0.6 K 0 % 0 % 0 % 0 m²/s² 0 0 0.99 80
19:00 57 J/kg 0.0 K 0 % 0 % 0 % 0 m²/s² 0 0 2.73 1
20:00 222 J/kg -0.7 K 0 % 0 % 0 % 0 m²/s² 0 0 1.67 2
21:00 430 J/kg -1.6 K 0 % 0 % 0 % 0 m²/s² 0 0 0.23 0
22:00 730 J/kg -2.9 K 0 % 0 % 0 % 0 m²/s² 0 0 -0.74 1
23:00 530 J/kg -2.6 K 0 % 0 % 0 % 0 m²/s² 0 0 -0.17 1
 04:46     21:26    Daglengte: 16:40 Zaterdag 31 Jul
00:00 350 J/kg -2.4 K 0 % 0 % 0 % 0 m²/s² 0 0 0.33 2
01:00 129 J/kg -1.9 K 0 % 0 % 0 % 0 m²/s² 0 0 1.31 2
02:00 206 J/kg -2.0 K 0 % 0 % 0 % 0 m²/s² 0 0 1.75 2
03:00 195 J/kg -1.8 K 0 % 0 % 0 % 0 m²/s² 0 0 2.37 2
04:00 154 J/kg -1.8 K 0 % 0 % 0 % 0 m²/s² 0 0 1.95 2
05:00 6 J/kg -1.3 K 0 % 0 % 0 % 0 m²/s² 0 0 2.27 3
06:00 3 J/kg -1.5 K 0 % 0 % 0 % 0 m²/s² 0 0 1.44 3
07:00 0 J/kg -1.9 K 0 % 0 % 0 % 0 m²/s² 0 0 0.38 3
08:00 0 J/kg -1.7 K 0 % 0 % 0 % 0 m²/s² 0 0 -0.41 3
09:00 1 J/kg -1.4 K 0 % 0 % 0 % 0 m²/s² 0 0 -1.07 3
10:00 0 J/kg -0.2 K 0 % 0 % 0 % 0 m²/s² 0 0 0.01 3
11:00 79 J/kg -0.8 K 0 % 0 % 0 % 0 m²/s² 0 0 0.22 3
12:00 276 J/kg -1.6 K 0 % 0 % 0 % 0 m²/s² 0 0 0.14 3
13:00 496 J/kg -2.3 K 0 % 0 % 0 % 0 m²/s² 0 0 -0.38 3
14:00 553 J/kg -2.5 K 0 % 0 % 0 % 0 m²/s² 0 0 -1.81 3
15:00 689 J/kg -3.0 K 0 % 0 % 0 % 0 m²/s² 0 0 -2.07 2
16:00 717 J/kg -2.8 K 0 % 0 % 0 % 0 m²/s² 0 0 -1.12 3
17:00 701 J/kg -2.9 K 0 % 0 % 0 % 0 m²/s² 0 0 -2.39 3
18:00 620 J/kg -2.3 K 0 % 0 % 0 % 0 m²/s² 0 0 -2.09 95
19:00 442 J/kg -2.2 K 0 % 0 % 0 % 0 m²/s² 0 0 -1.9 95
20:00 320 J/kg -1.4 K 0 % 0 % 0 % 0 m²/s² 0 0 -0.89 80
Temp Baro Wind Neerslag
  EWN Forecast EWN WRFDA DWD ICON FMI HIRLAM MET Norway GFS
 04:40     21:33    Daglengte: 16:53 Vandaag
23:00 17.6° 1004.8 hPa 1.5 m/s 0.0 mm 18.2° 1004.0 hPa 2.7 m/s 1.2 mm 17.2° 1005.0 hPa 1.4 m/s 0.0 mm 17.4° 1004.7 hPa 0.9 m/s 0.0 mm 15.3° 1004.2 hPa 1.6 m/s
 04:42     21:31    Daglengte: 16:49 Morgen
02:00 16.5° 1004.0 hPa 1.8 m/s 0.0 mm 14.5° 1003.5 hPa 1.5 m/s 1.5 mm 15.7° 1004.0 hPa 1.9 m/s 0.0 mm 16.8° 1004.0 hPa 1.5 m/s 0.0 mm 14.2° 1003.3 hPa 1.8 m/s
05:00 14.6° 1002.8 hPa 1.7 m/s 0.0 mm 13.4° 1001.5 hPa 2.4 m/s 1.7 mm 14.5° 1003.0 hPa 1.6 m/s 0.0 mm 14.4° 1002.9 hPa 1.0 m/s 0.0 mm 13.6° 1002.4 hPa 2.0 m/s
08:00 17.4° 1001.8 hPa 2.0 m/s 0.0 mm 18.3° 1000.8 hPa 2.9 m/s 1.7 mm 17.4° 1001.7 hPa 2.1 m/s 0.0 mm 17.0° 1002.0 hPa 1.2 m/s 0.0 mm 17.4° 1001.2 hPa 2.1 m/s
11:00 20.4° 1000.3 hPa 3.2 m/s 1.3 mm 21.7° 999.1 hPa 3.7 m/s 1.7 mm 19.1° 1000.6 hPa 4.0 m/s 0.6 mm 23.1° 1000.4 hPa 1.2 m/s 0.0 mm 20.3° 999.4 hPa 3.8 m/s
14:00 19.9° 998.7 hPa 4.3 m/s 2.1 mm 22.1° 997.5 hPa 6.3 m/s 1.8 mm 19.4° 999.1 hPa 4.2 m/s 1.0 mm 20.2° 998.5 hPa 2.7 m/s 0.0 mm 18.8° 998.4 hPa 4.9 m/s
17:00 18.5° 997.3 hPa 3.9 m/s 1.5 mm 17.8° 997.3 hPa 4.4 m/s 2.4 mm 17.5° 997.9 hPa 4.0 m/s 1.4 mm 19.4° 996.6 hPa 2.5 m/s 0.0 mm 16.3° 998.1 hPa 4.8 m/s
20:00 16.4° 996.5 hPa 3.6 m/s 1.1 mm 16.5° 995.6 hPa 3.8 m/s 2.7 mm 15.6° 996.7 hPa 3.7 m/s 0.8 mm 17.3° 995.9 hPa 1.6 m/s 0.0 mm 14.1° 996.5 hPa 3.4 m/s
23:00 14.4° 995.3 hPa 3.5 m/s 0.0 mm 12.6° 994.4 hPa 2.4 m/s 2.8 mm 14.8° 995.3 hPa 3.7 m/s 0.0 mm 14.4° 995.0 hPa 1.2 m/s 0.0 mm 12.1° 995.5 hPa 2.8 m/s
 04:44     21:29    Daglengte: 16:45 Vrijdag 30 Jul
02:00 14.2° 994.1 hPa 3.8 m/s 0.0 mm 14.2° 993.5 hPa 5.5 m/s 3.0 mm 14.0° 993.6 hPa 3.6 m/s 0.0 mm 14.4° 994.2 hPa 1.8 m/s 0.0 mm 13.1° 993.6 hPa 3.9 m/s
05:00 14.5° 992.2 hPa 4.3 m/s 0.5 mm 13.4° 991.4 hPa 4.2 m/s 3.0 mm 14.9° 990.9 hPa 4.4 m/s 0.2 mm 14.7° 992.5 hPa 3.2 m/s 0.0 mm 13.2° 991.8 hPa 3.3 m/s
08:00 15.1° 991.0 hPa 6.5 m/s 6.7 mm 15.2° 989.4 hPa 9.0 m/s 14.7 mm 15.4° 989.6 hPa 6.9 m/s 7.5 mm 15.2° 992.1 hPa 3.3 m/s 0.0 mm 13.8° 990.9 hPa 2.1 m/s
11:00 17.1° 990.9 hPa 6.1 m/s 2.4 mm 17.0° 989.1 hPa 6.7 m/s 31.9 mm 18.9° 991.5 hPa 6.4 m/s 0.2 mm 17.1° 991.2 hPa 4.6 m/s 0.0 mm 15.1° 991.0 hPa 3.3 m/s
14:00 20.9° 991.6 hPa 4.9 m/s 0.0 mm 16.3° 989.0 hPa 3.1 m/s 35.6 mm 23.0° 992.4 hPa 6.4 m/s 0.1 mm 21.9° 992.3 hPa 3.2 m/s 0.0 mm 16.6° 992.1 hPa 2.8 m/s
17:00 21.3° 991.2 hPa 4.3 m/s 7.5 mm 21.7° 990.0 hPa 4.1 m/s 40.1 mm 23.2° 994.1 hPa 5.5 m/s 0.3 mm 23.5° 992.7 hPa 4.1 m/s
20:00 21.1° 992.8 hPa 3.0 m/s 3.1 mm 21.5° 991.7 hPa 2.4 m/s 40.3 mm 21.6° 995.2 hPa 2.8 m/s 0.2 mm 18.6° 994.7 hPa 2.6 m/s
23:00 17.4° 994.5 hPa 4.5 m/s 4.6 mm 17.5° 993.0 hPa 4.9 m/s 40.3 mm 17.4° 996.8 hPa 3.6 m/s 0.0 mm 16.0° 996.7 hPa 4.4 m/s
 04:46     21:26    Daglengte: 16:40 Zaterdag 31 Jul
02:00 17.0° 995.3 hPa 4.1 m/s 13.9 mm 16.9° 994.2 hPa 4.0 m/s 40.3 mm 16.9° 997.4 hPa 3.6 m/s 0.0 mm 15.4° 997.2 hPa 3.9 m/s
05:00 16.1° 995.3 hPa 2.9 m/s 4.7 mm 16.0° 994.4 hPa 1.9 m/s 40.4 mm 15.8° 997.3 hPa 2.8 m/s 0.0 mm 15.0° 997.2 hPa 2.7 m/s
08:00 16.3° 995.8 hPa 3.5 m/s 4.6 mm 15.4° 994.7 hPa 2.5 m/s 41.5 mm 17.1° 997.6 hPa 3.6 m/s 0.0 mm 16.2° 996.5 hPa 2.0 m/s
11:00 17.9° 996.0 hPa 3.5 m/s 14.7 mm 17.9° 994.6 hPa 2.5 m/s 42.3 mm 18.6° 998.1 hPa 4.0 m/s 0.1 mm 19.9° 996.1 hPa 2.7 m/s
14:00 20.7° 995.4 hPa 2.2 m/s 14.5 mm 21.6° 994.1 hPa 2.2 m/s 42.5 mm 20.3° 997.5 hPa 3.0 m/s 0.3 mm 19.5° 995.4 hPa 2.6 m/s
17:00 20.7° 995.8 hPa 1.9 m/s 9.7 mm 20.7° 993.1 hPa 1.5 m/s 43.0 mm 20.7° 996.5 hPa 2.1 m/s 0.3 mm 16.3° 994.7 hPa 2.5 m/s
20:00 17.6° 995.5 hPa 2.1 m/s 25.3 mm 16.0° 993.8 hPa 3.4 m/s 63.0 mm 18.0° 995.9 hPa 1.7 m/s 6.5 mm 15.3° 994.4 hPa 1.3 m/s
23:00 13.9° 994.8 hPa 1.9 m/s 35.0 mm 13.9° 994.8 hPa 1.9 m/s 35.0 mm
 04:48     21:24    Daglengte: 16:36 Zondag 01 Aug
02:00 12.2° 995.7 hPa 2.5 m/s 35.0 mm 12.2° 995.7 hPa 2.5 m/s 35.0 mm
05:00 11.0° 996.2 hPa 1.8 m/s 35.0 mm 11.0° 996.2 hPa 1.8 m/s 35.0 mm
08:00 14.2° 997.0 hPa 2.1 m/s 35.0 mm 14.2° 997.0 hPa 2.1 m/s 35.0 mm
11:00 15.1° 998.3 hPa 2.9 m/s 35.0 mm 15.1° 998.3 hPa 2.9 m/s 35.0 mm
14:00 19.0° 998.7 hPa 3.9 m/s 35.6 mm 19.0° 998.7 hPa 3.9 m/s 35.6 mm
17:00 19.4° 999.4 hPa 4.1 m/s 36.0 mm 19.4° 999.4 hPa 4.1 m/s 36.0 mm
20:00 15.9° 1000.3 hPa 3.9 m/s 36.5 mm 15.9° 1000.3 hPa 3.9 m/s 36.5 mm
23:00 12.9° 1001.2 hPa 3.1 m/s 36.5 mm 12.9° 1001.2 hPa 3.1 m/s 36.5 mm
 04:51     21:22    Daglengte: 16:31 Maandag 02 Aug
02:00 11.4° 1001.8 hPa 2.0 m/s 36.5 mm 11.4° 1001.8 hPa 2.0 m/s 36.5 mm
05:00 12.0° 1001.6 hPa 1.4 m/s 36.6 mm 12.0° 1001.6 hPa 1.4 m/s 36.6 mm
08:00 13.7° 1002.1 hPa 0.7 m/s 36.6 mm 13.7° 1002.1 hPa 0.7 m/s 36.6 mm
11:00 13.8° 1003.0 hPa 2.8 m/s 36.7 mm 13.8° 1003.0 hPa 2.8 m/s 36.7 mm
14:00 15.7° 1003.5 hPa 3.2 m/s 36.7 mm 15.7° 1003.5 hPa 3.2 m/s 36.7 mm
17:00 16.0° 1003.9 hPa 3.0 m/s 36.7 mm 16.0° 1003.9 hPa 3.0 m/s 36.7 mm
20:00 14.5° 1004.3 hPa 1.4 m/s 36.7 mm 14.5° 1004.3 hPa 1.4 m/s 36.7 mm
23:00 11.9° 1005.0 hPa 1.0 m/s 36.7 mm 11.9° 1005.0 hPa 1.0 m/s 36.7 mm
 04:53     21:19    Daglengte: 16:26 Dinsdag 03 Aug
02:00 11.9° 1005.9 hPa 1.6 m/s 36.7 mm 11.9° 1005.9 hPa 1.6 m/s 36.7 mm
05:00 12.2° 1006.6 hPa 0.9 m/s 36.7 mm 12.2° 1006.6 hPa 0.9 m/s 36.7 mm
08:00 14.2° 1007.6 hPa 1.5 m/s 36.7 mm 14.2° 1007.6 hPa 1.5 m/s 36.7 mm
11:00 19.4° 1007.9 hPa 0.8 m/s 36.7 mm 19.4° 1007.9 hPa 0.8 m/s 36.7 mm
14:00 20.6° 1007.5 hPa 1.7 m/s 36.7 mm 20.6° 1007.5 hPa 1.7 m/s 36.7 mm
17:00 16.2° 1007.8 hPa 0.7 m/s 37.0 mm 16.2° 1007.8 hPa 0.7 m/s 37.0 mm
20:00 13.9° 1007.9 hPa 2.2 m/s 37.6 mm 13.9° 1007.9 hPa 2.2 m/s 37.6 mm
23:00 10.8° 1008.7 hPa 2.2 m/s 37.8 mm 10.8° 1008.7 hPa 2.2 m/s 37.8 mm
 04:55     21:17    Daglengte: 16:22 Woensdag 04 Aug
02:00 11.3° 1009.1 hPa 1.8 m/s 38.7 mm 11.3° 1009.1 hPa 1.8 m/s 38.7 mm
05:00 10.1° 1009.7 hPa 1.6 m/s 39.1 mm 10.1° 1009.7 hPa 1.6 m/s 39.1 mm
08:00 12.8° 1011.2 hPa 1.1 m/s 39.1 mm 12.8° 1011.2 hPa 1.1 m/s 39.1 mm
11:00 18.3° 1011.5 hPa 1.1 m/s 39.2 mm 18.3° 1011.5 hPa 1.1 m/s 39.2 mm
14:00 21.3° 1011.2 hPa 1.6 m/s 39.4 mm 21.3° 1011.2 hPa 1.6 m/s 39.4 mm
17:00 20.5° 1011.6 hPa 2.7 m/s 39.4 mm 20.5° 1011.6 hPa 2.7 m/s 39.4 mm
20:00 16.7° 1012.3 hPa 1.9 m/s 39.4 mm 16.7° 1012.3 hPa 1.8 m/s 39.4 mm
 04:57     21:14    Daglengte: 16:17 Donderdag 05 Aug
02:00 11.3° 1014.2 hPa 1.6 m/s 39.4 mm 11.3° 1014.2 hPa 1.6 m/s 39.4 mm
08:00 15.7° 1014.4 hPa 1.5 m/s 39.4 mm 15.7° 1014.4 hPa 1.5 m/s 39.4 mm
14:00 18.8° 1013.9 hPa 1.9 m/s 40.5 mm 18.8° 1013.9 hPa 1.9 m/s 40.5 mm
20:00 17.0° 1013.4 hPa 1.6 m/s 41.0 mm 17.0° 1013.4 hPa 1.6 m/s 41.0 mm
 05:00     21:12    Daglengte: 16:12 Vrijdag 06 Aug
02:00 13.8° 1013.6 hPa 1.2 m/s 41.0 mm 13.7° 1013.6 hPa 1.2 m/s 41.0 mm
08:00 16.3° 1012.5 hPa 2.2 m/s 41.0 mm 16.3° 1012.5 hPa 2.2 m/s 41.0 mm
14:00 24.5° 1010.1 hPa 5.0 m/s 41.0 mm 24.5° 1010.1 hPa 5.0 m/s 41.0 mm
20:00 17.7° 1009.2 hPa 1.8 m/s 42.6 mm 17.7° 1009.2 hPa 1.8 m/s 42.6 mm
 05:02     21:09    Daglengte: 16:07 Zaterdag 07 Aug
02:00 15.5° 1008.0 hPa 2.4 m/s 42.6 mm 15.5° 1008.0 hPa 2.4 m/s 42.6 mm
08:00 15.5° 1007.1 hPa 1.3 m/s 1.1 mm
14:00 20.8° 1006.3 hPa 1.6 m/s 1.1 mm
20:00 17.8° 1006.1 hPa 0.8 m/s 2.0 mm
 05:04     21:06    Daglengte: 16:02 Zondag 08 Aug
02:00 14.0° 1006.8 hPa 0.4 m/s 0.8 mm
08:00 15.5° 1006.8 hPa 0.4 m/s 0.9 mm
14:00 20.8° 1007.4 hPa 0.9 m/s 1.0 mm
20:00 18.0° 1008.1 hPa 0.8 m/s 1.2 mm
 05:07     21:04    Daglengte: 15:57 Maandag 09 Aug
02:00 13.6° 1009.6 hPa 0.6 m/s 0.5 mm
08:00 15.9° 1009.7 hPa 0.8 m/s 0.9 mm
14:00 20.6° 1009.7 hPa 1.8 m/s 1.5 mm
20:00 17.6° 1009.8 hPa 1.3 m/s 1.7 mm
 05:09     21:01    Daglengte: 15:52 Dinsdag 10 Aug
02:00 13.7° 1011.0 hPa 1.3 m/s 0.2 mm
08:00 15.6° 1011.0 hPa 1.3 m/s 0.2 mm
14:00 21.4° 1010.3 hPa 1.6 m/s 0.9 mm
20:00 17.8° 1009.5 hPa 1.2 m/s 1.3 mm
 05:11     20:59    Daglengte: 15:48 Woensdag 11 Aug
02:00